Location: Le Pont-de-Coulogne
(50.9242°N, 1.8700°E)
Time: 21:40:14
(UTC+00:00)

Cosmos 1503 Rocket - Pass Details

Date: 15 May 2026
Orbit: 749 x 785 km, 74.0° (Epoch: 10 June)

Event Time Altitude Azimuth Distance (km) Brightness Sun altitude
Rises 21:42:21 0° 333° (NNW) 3,228 9.2 -14.7°
Reaches altitude 10° 21:44:44 10° 331° (NNW) 2,294 7.9 -14.9°
Maximum altitude 21:49:53 67° 250° (WSW) 818 4.1 -15.3°
Enters shadow 21:53:05 23° 173° (S) 1,562 5.1 -15.6°
